Date,TemperatureHighF,TemperatureAvgF,TemperatureLowF,DewpointHighF,DewpointAvgF,DewpointLowF,HumidityHigh,HumidityAvg,HumidityLow,PressureMaxIn,PressureMinIn,WindSpeedMaxMPH,WindSpeedAvgMPH,GustSpeedMaxMPH,PrecipitationSumIn
2013-2-1,3.0,-4.8,-14.0,-6.0,-14.9,-21.0,74,62,44,0.00,40.00,6,4,13,0.01
2013-2-2,17.0,0.9,-14.0,1.0,-8.4,-21.0,82,65,43,0.00,40.00,4,2,12,0.00
2013-2-3,12.0,2.1,-12.0,0.0,-6.5,-18.0,79,68,47,0.00,40.00,9,4,22,0.00
2013-2-4,15.0,-4.8,-21.0,-4.0,-14.8,-29.0,81,64,29,0.00,40.00,6,2,11,0.00
2013-2-5,20.0,9.8,-7.0,13.0,3.8,-12.0,88,77,50,0.00,40.00,9,4,18,0.09
2013-2-6,22.0,8.3,-10.0,17.0,3.2,-16.0,92,79,59,0.00,40.00,4,2,9,0.08
2013-2-7,22.0,19.3,17.0,20.0,17.0,12.0,93,91,82,0.00,40.00,6,4,12,0.01
2013-2-8,28.0,10.9,-2.0,14.0,5.0,-6.0,88,78,52,0.00,40.00,7,2,15,0.00
2013-2-9,29.0,15.3,-4.0,18.0,8.8,-9.0,94,76,52,0.00,40.00,6,3,16,0.00
2013-2-10,31.0,26.4,19.0,31.0,25.5,18.0,100,96,93,0.00,40.00,7,4,20,0.27
2013-2-11,32.0,26.2,19.0,32.0,24.3,15.0,100,93,85,0.00,40.00,10,5,21,0.31
2013-2-12,22.0,18.3,13.0,19.0,14.5,11.0,93,85,74,0.00,40.00,6,3,11,0.04
2013-2-13,39.0,24.6,12.0,30.0,21.1,10.0,98,87,66,0.00,40.00,5,2,9,0.00
2013-2-14,29.0,23.3,14.0,27.0,18.9,8.0,96,83,67,0.00,40.00,9,6,17,0.04
2013-2-15,19.0,8.2,-4.0,8.0,1.4,-8.0,85,74,52,0.00,40.00,10,4,16,0.01
2013-2-16,17.0,0.4,-14.0,2.0,-7.6,-20.0,82,70,48,0.00,40.00,7,3,12,0.00
2013-2-17,27.0,3.6,-21.0,5.0,-9.2,-29.0,75,57,34,0.00,40.00,6,3,14,0.00
2013-2-18,34.0,25.2,15.0,29.0,19.0,5.0,97,77,61,0.00,40.00,8,5,18,0.06
2013-2-19,25.0,9.2,3.0,24.0,2.9,-7.0,94,75,56,0.00,40.00,14,10,26,0.03
2013-2-20,20.0,10.7,4.0,5.0,1.8,-3.0,79,67,51,0.00,40.00,12,8,24,0.00
2013-2-21,33.0,12.6,-9.0,16.0,5.4,-14.0,90,74,43,0.00,40.00,6,4,17,0.00
2013-2-22,26.0,20.2,15.0,22.0,17.4,13.0,94,89,82,0.00,40.00,7,4,16,0.21
2013-2-23,29.0,20.7,9.0,25.0,17.5,6.0,96,87,76,0.00,40.00,5,2,9,0.09
2013-2-24,33.0,25.0,19.0,24.0,20.5,18.0,95,84,57,0.00,40.00,4,2,7,0.03
2013-2-25,34.0,27.4,20.0,27.0,23.3,19.0,96,85,63,0.00,40.00,5,1,9,0.00
2013-2-26,37.0,27.4,17.0,26.0,22.0,16.0,97,81,52,0.00,40.00,6,4,15,0.00
2013-2-27,31.0,28.4,26.0,25.0,22.9,21.0,84,80,70,0.00,40.00,11,8,21,0.00
2013-2-28,28.0,23.7,18.0,24.0,17.2,11.0,89,76,60,0.00,40.00,11,8,24,0.00